This is the latest recevied weather packets stored in our database for station/object K6CQU-13. If no packets are shown the sender has not sent any weather packets the latest 10 day(s).
| Time | Temp. | Humidity | Pressure | Rain* | Wind** | Luminosity | Snow |
|---|---|---|---|---|---|---|---|
| 1778113817 | 23.89° C | 55% | 1016.9 hPa | 0 mm | - | 425 W/m² | - |
| 1778113517 | 23.89° C | 54% | 1016.8 hPa | 0 mm | - | 441 W/m² | - |
| 1778113217 | 23.89° C | 54% | 1016.8 hPa | 0 mm | - | 459 W/m² | - |
| 1778112917 | 23.89° C | 54% | 1016.9 hPa | 0 mm | - | 474 W/m² | - |
| 1778112617 | 24.44° C | 54% | 1016.9 hPa | 0 mm | - | 490 W/m² | - |
| 1778112317 | 23.89° C | 54% | 1016.9 hPa | 0 mm | - | 505 W/m² | - |
| 1778112017 | 23.89° C | 55% | 1016.8 hPa | 0 mm | - | 520 W/m² | - |
| 1778111717 | 23.89° C | 55% | 1016.9 hPa | 0 mm | - | 534 W/m² | - |
| 1778111417 | 23.89° C | 56% | 1016.9 hPa | 0 mm | - | 549 W/m² | - |
| 1778111117 | 24.44° C | 55% | 1016.9 hPa | 0 mm | - | 563 W/m² | - |
| 1778110817 | 24.44° C | 56% | 1017 hPa | 0 mm | - | 578 W/m² | - |
| 1778110516 | 24.44° C | 55% | 1017 hPa | 0 mm | - | 592 W/m² | - |
| 1778110217 | 24.44° C | 54% | 1017.1 hPa | 0 mm | - | 605 W/m² | - |
| 1778109917 | 24.44° C | 55% | 1017.1 hPa | 0 mm | - | 621 W/m² | - |
| 1778109617 | 24.44° C | 55% | 1017.1 hPa | 0 mm | - | 634 W/m² | - |
| 1778109317 | 24.44° C | 54% | 1017.2 hPa | 0 mm | - | 648 W/m² | - |
| 1778109017 | 24.44° C | 55% | 1017.2 hPa | 0 mm | - | 660 W/m² | - |
| 1778108717 | 24.44° C | 55% | 1017.4 hPa | 0 mm | - | 674 W/m² | - |
| 1778108416 | 24.44° C | 55% | 1017.5 hPa | 0 mm | - | 684 W/m² | - |
| 1778108116 | 24.44° C | 53% | 1017.4 hPa | 0 mm | - | 697 W/m² | - |
| 1778107817 | 25° C | 53% | 1017.6 hPa | 0 mm | - | 710 W/m² | - |
| 1778107517 | 25° C | 54% | 1017.6 hPa | 0 mm | - | 722 W/m² | - |
| 1778107217 | 24.44° C | 54% | 1017.7 hPa | 0 mm | - | 733 W/m² | - |
| 1778106917 | 24.44° C | 54% | 1017.8 hPa | 0 mm | - | 743 W/m² | - |
| 1778106616 | 24.44° C | 55% | 1017.8 hPa | 0 mm | - | 753 W/m² | - |
* Rain latest hour (hover to see other rain measurements)
** Current wind speed in m/s (hover to see current wind gust speed)